DW6494 Weather Reports


Display with metric or nautical units.
time (UTC)temp
F
wind
direction
speed
MPH
gust
MPH
rain 1hr
in
rain 24hr
in
rain mn
in
humidity
%
barometer
mb
20260902101030 65 275 4.0 7.0 0.00 0.00 0.00 60 1020.0
20260902100530 64 3 6.0 9.0 0.00 0.00 0.00 60 1020.0
20260902100029 65 349 3.0 5.0 0.00 0.00 0.00 60 1020.0
20260902095529 65 359 4.0 5.0 0.00 0.00 0.00 59 1020.0
20260902095029 65 360 5.0 5.0 0.00 0.00 0.00 60 1020.0
20260902094529 65 359 4.0 5.0 0.00 0.00 0.00 60 1020.0
20260902094030 65 348 6.0 7.0 0.00 0.00 0.00 59 1020.0
20260902093529 65 355 5.0 5.0 0.00 0.00 0.00 59 1020.0
20260902093031 65 350 5.0 5.0 0.00 0.00 0.00 59 1020.0
20260902092530 66 3 6.0 7.0 0.00 0.00 0.00 58 1020.0
20260902092029 66 359 6.0 7.0 0.00 0.00 0.00 57 1020.0
20260902091529 67 358 6.0 6.0 0.00 0.00 0.00 55 1020.0
20260902091030 67 35 3.0 4.0 0.00 0.00 0.00 54 1020.0
20260902090533 67 3 4.0 6.0 0.00 0.00 0.00 55 1020.0
20260902090029 67 323 3.0 5.0 0.00 0.00 0.00 54 1020.0
20260902085530 67 335 3.0 4.0 0.00 0.00 0.00 54 1020.0
20260902085029 67 197 3.0 4.0 0.00 0.00 0.00 55 1020.0
20260902084530 66 173 4.0 4.0 0.00 0.00 0.00 55 1020.0
20260902084038 66 106 3.0 6.0 0.00 0.00 0.00 55 1020.0
20260902083529 65 343 6.0 7.0 0.00 0.00 0.00 58 1020.0
20260902083030 65 129 3.0 7.0 0.00 0.00 0.00 57 1020.0
20260902082531 65 318 4.0 5.0 0.00 0.00 0.00 58 1020.0
20260902082030 65 352 6.0 8.0 0.00 0.00 0.00 59 1020.0
20260902081531 65 342 6.0 7.0 0.00 0.00 0.00 60 1020.0
20260902081030 66 341 6.0 6.0 0.00 0.00 0.00 59 1020.0
20260902080530 66 357 5.0 6.0 0.00 0.00 0.00 58 1020.0
20260902080029 67 3 5.0 6.0 0.00 0.00 0.00 58 1020.0
20260902075529 67 359 6.0 6.0 0.00 0.00 0.00 58 1020.0
20260902075030 67 6 5.0 7.0 0.00 0.00 0.00 57 1020.0
20260902074529 68 22 2.0 5.0 0.00 0.00 0.00 57 1020.0
20260902074031 68 81 2.0 4.0 0.00 0.00 0.00 57 1020.0
20260902073529 68 38 2.0 5.0 0.00 0.00 0.00 57 1020.0
20260902073030 68 188 2.0 4.0 0.00 0.00 0.00 55 1020.0
20260902072529 69 149 1.0 5.0 0.00 0.00 0.00 55 1020.0
20260902072031 68 162 7.0 9.0 0.00 0.00 0.00 55 1020.0
20260902071531 68 159 4.0 9.0 0.00 0.00 0.00 55 1020.0
20260902071030 68 140 5.0 8.0 0.00 0.00 0.00 56 1020.0
20260902070529 68 133 3.0 4.0 0.00 0.00 0.00 56 1020.0
20260902070032 68 22 3.0 4.0 0.00 0.00 0.00 58 1020.0
20260902065529 68 153 5.0 8.0 0.00 0.00 0.00 57 1020.0
20260902065030 68 121 3.0 4.0 0.00 0.00 0.00 58 1020.0
20260902064529 69 149 3.0 6.0 0.00 0.00 0.00 58 1020.0
20260902064031 69 148 4.0 8.0 0.00 0.00 0.00 57 1020.0
20260902063529 69 44 0.0 2.0 0.00 0.00 0.00 58 1020.0
20260902063029 69 138 1.0 4.0 0.00 0.00 0.00 57 1020.0
20260902062529 69 120 0.0 1.0 0.00 0.00 0.00 56 1020.0
20260902062029 70 126 1.0 3.0 0.00 0.00 0.00 55 1020.0
20260902061529 70 143 5.0 9.0 0.00 0.00 0.00 54 1020.0
20260902061029 70 138 1.0 3.0 0.00 0.00 0.00 54 1020.0
20260902060530 70 144 2.0 3.0 0.00 0.00 0.00 54 1020.0
20260902060029 70 107 3.0 5.0 0.00 0.00 0.00 55 1020.0
20260902055530 70 137 8.0 12.0 0.00 0.00 0.00 56 1020.0
20260902055030 70 172 3.0 9.0 0.00 0.00 0.00 59 1020.0
20260902054529 70 152 7.0 11.0 0.00 0.00 0.00 59 1020.0
20260902054029 70 156 4.0 5.0 0.00 0.00 0.00 60 1020.0
20260902053531 70 151 6.0 9.0 0.00 0.00 0.00 60 1020.0
20260902053029 71 149 4.0 6.0 0.00 0.00 0.00 59 1020.0
20260902052530 71 150 8.0 11.0 0.00 0.00 0.00 58 1020.0
20260902052029 71 147 4.0 7.0 0.00 0.00 0.00 58 1020.0
20260902051529 71 149 6.0 11.0 0.00 0.00 0.00 57 1020.0
20260902051030 71 136 4.0 9.0 0.00 0.00 0.00 56 1020.0
20260902050529 71 157 9.0 12.0 0.00 0.00 0.00 56 1020.0
20260902050029 71 142 3.0 11.0 0.00 0.00 0.00 55 1020.0
20260902045529 71 141 6.0 11.0 0.00 0.00 0.00 54 1020.0
20260902045029 70 157 9.0 11.0 0.00 0.00 0.00 54 1020.0
20260902044530 70 359 2.0 4.0 0.00 0.00 0.00 54 1020.0
20260902044030 70 163 3.0 4.0 0.00 0.00 0.00 54 1020.0
20260902043529 70 360 0.0 0.0 0.00 0.00 0.00 54 1020.0
20260902043029 71 11 4.0 5.0 0.00 0.00 0.00 54 1020.0
20260902042530 71 360 1.0 3.0 0.00 0.00 0.00 54 1020.0
20260902042029 71 9 1.0 4.0 0.00 0.00 0.00 55 1020.0
20260902041530 70 19 0.0 1.0 0.00 0.00 0.00 56 1020.0
20260902041029 70 360 0.0 0.0 0.00 0.00 0.00 57 1020.0
20260902040530 71 1 1.0 4.0 0.00 0.00 0.00 58 1020.0
20260902040029 71 360 0.0 0.0 0.00 0.00 0.00 56 1020.0
20260902035048 71 360 0.0 0.0 0.00 0.00 0.00 54 1020.0
20260902034529 70 118 1.0 2.0 0.00 0.00 0.00 55 1020.0
20260902034029 70 5 1.0 4.0 0.00 0.00 0.00 54 1020.0
20260902033529 70 360 0.0 0.0 0.00 0.00 0.00 54 1020.0
20260902033030 70 6 0.0 0.0 0.00 0.00 0.00 53 1020.0
20260902032531 69 357 0.0 0.0 0.00 0.00 0.00 55 1019.0
20260902032029 69 360 0.0 0.0 0.00 0.00 0.00 55 1019.0
20260902031533 69 349 2.0 4.0 0.00 0.00 0.00 56 1019.0
20260902031029 70 356 1.0 3.0 0.00 0.00 0.00 54 1019.0
20260902030529 70 3 4.0 5.0 0.00 0.00 0.00 56 1019.0
20260902030030 70 360 0.0 0.0 0.00 0.00 0.00 54 1019.0
20260902025529 71 360 0.0 0.0 0.00 0.00 0.00 53 1019.0
20260902025029 71 360 0.0 0.0 0.00 0.00 0.00 52 1019.0
20260902024530 72 360 0.0 0.0 0.00 0.00 0.00 51 1019.0
20260902024029 72 360 0.0 0.0 0.00 0.00 0.00 48 1019.0
20260902023529 73 32 1.0 1.0 0.00 0.00 0.00 48 1019.0
20260902023030 73 360 0.0 0.0 0.00 0.00 0.00 48 1019.0
20260902022529 73 11 3.0 4.0 0.00 0.00 0.00 47 1019.0
20260902022029 74 138 2.0 4.0 0.00 0.00 0.00 45 1019.0
20260902021531 74 358 2.0 3.0 0.00 0.00 0.00 45 1019.0
20260902021033 75 18 2.0 3.0 0.00 0.00 0.00 44 1019.0
20260902020530 75 116 4.0 6.0 0.00 0.00 0.00 43 1019.0
20260902020030 75 145 4.0 4.0 0.00 0.00 0.00 43 1019.0
20260902015529 75 128 3.0 5.0 0.00 0.00 0.00 43 1019.0
20260902015029 76 141 5.0 7.0 0.00 0.00 0.00 42 1019.0
20260902014530 76 147 7.0 10.0 0.00 0.00 0.00 41 1019.0
20260902014030 76 155 5.0 6.0 0.00 0.00 0.00 41 1019.0
20260902013529 76 150 7.0 9.0 0.00 0.00 0.00 40 1019.0
20260902013030 76 129 4.0 4.0 0.00 0.00 0.00 41 1019.0
20260902012529 76 149 1.0 4.0 0.00 0.00 0.00 42 1019.0
20260902012029 76 164 2.0 6.0 0.00 0.00 0.00 42 1019.0
20260902011529 76 156 2.0 5.0 0.00 0.00 0.00 42 1019.0
20260902011030 76 153 7.0 9.0 0.00 0.00 0.00 43 1019.0
20260902010530 76 129 3.0 4.0 0.00 0.00 0.00 44 1019.0
20260902010029 76 161 5.0 6.0 0.00 0.00 0.00 44 1019.0
20260902005529 77 149 10.0 16.0 0.00 0.00 0.00 42 1019.0
20260902005031 77 140 12.0 16.0 0.00 0.00 0.00 40 1019.0
20260902004529 77 149 8.0 14.0 0.00 0.00 0.00 38 1019.0
20260902004029 77 145 6.0 11.0 0.00 0.00 0.00 41 1019.0
20260902003533 77 149 8.0 12.0 0.00 0.00 0.00 42 1019.0
20260902003030 77 167 2.0 3.0 0.00 0.00 0.00 41 1019.0
20260902002529 77 138 3.0 4.0 0.00 0.00 0.00 41 1019.0
20260902002031 77 170 6.0 9.0 0.00 0.00 0.00 40 1019.0
20260902001530 77 149 9.0 16.0 0.00 0.00 0.00 40 1019.0
20260902001029 77 133 7.0 13.0 0.00 0.00 0.00 41 1019.0
20260902000530 77 133 3.0 7.0 0.00 0.00 0.00 40 1019.0
20260902000030 78 151 11.0 13.0 0.00 0.00 0.00 39 1019.0
20260901235530 78 163 9.0 13.0 0.00 0.00 0.00 39 1019.0
20260901235029 78 156 10.0 13.0 0.00 0.00 0.00 39 1019.0
20260901234529 78 138 13.0 17.0 0.00 0.00 0.00 38 1019.0
20260901234029 78 147 10.0 15.0 0.00 0.00 0.00 38 1019.0
20260901233529 78 147 11.0 16.0 0.00 0.00 0.00 39 1020.0
20260901233029 79 138 8.0 12.0 0.00 0.00 0.00 38 1020.0
20260901232530 79 158 7.0 9.0 0.00 0.00 0.00 38 1020.0
20260901232029 79 140 13.0 16.0 0.00 0.00 0.00 38 1020.0
20260901231530 79 151 9.0 13.0 0.00 0.00 0.00 38 1020.0
20260901231030 79 164 7.0 11.0 0.00 0.00 0.00 39 1020.0
20260901230530 79 142 13.0 18.0 0.00 0.00 0.00 37 1020.0
20260901230030 79 132 14.0 18.0 0.00 0.00 0.00 37 1020.0
20260901225529 78 141 11.0 18.0 0.00 0.00 0.00 37 1020.0
20260901225029 78 143 9.0 14.0 0.00 0.00 0.00 38 1020.0
20260901224529 78 149 9.0 14.0 0.00 0.00 0.00 39 1020.0
20260901224029 78 151 7.0 10.0 0.00 0.00 0.00 40 1020.0
20260901223530 78 152 11.0 15.0 0.00 0.00 0.00 40 1020.0
20260901223029 77 137 8.0 13.0 0.00 0.00 0.00 41 1020.0
20260901222530 77 131 8.0 13.0 0.00 0.00 0.00 49 1020.0
20260901222029 77 122 7.0 11.0 0.00 0.00 0.00 47 1020.0
20260901221530 77 122 7.0 12.0 0.00 0.00 0.00 47 1020.0
20260901221029 76 79 5.0 10.0 0.00 0.00 0.00 47 1020.0
20260901220529 76 80 8.0 11.0 0.00 0.00 0.00 48 1020.0
20260901220029 75 114 7.0 11.0 0.00 0.00 0.00 48 1020.0
20260901215529 74 148 9.0 16.0 0.00 0.00 0.00 49 1020.0
20260901215029 73 53 4.0 8.0 0.00 0.00 0.00 55 1021.0
20260901214529 74 145 4.0 9.0 0.00 0.00 0.00 57 1021.0
20260901214029 74 148 9.0 17.0 0.00 0.00 0.00 52 1021.0
20260901213537 74 121 8.0 11.0 0.00 0.00 0.00 53 1021.0
20260901213029 74 148 11.0 16.0 0.00 0.00 0.00 52 1021.0
20260901212529 73 129 7.0 9.0 0.00 0.00 0.00 52 1021.0
20260901212033 73 111 4.0 7.0 0.00 0.00 0.00 52 1021.0
20260901211530 73 138 8.0 13.0 0.00 0.00 0.00 52 1021.0
20260901211029 73 143 22.0 32.0 0.00 0.00 0.00 50 1021.0
20260901210529 76 142 14.0 20.0 0.00 0.00 0.00 47 1021.0
20260901210029 76 166 12.0 16.0 0.00 0.00 0.00 43 1021.0
20260901205529 77 158 10.0 13.0 0.00 0.00 0.00 43 1021.0
20260901205031 77 160 6.0 15.0 0.00 0.00 0.00 43 1021.0
20260901204529 78 163 9.0 13.0 0.00 0.00 0.00 41 1021.0
20260901204029 78 148 6.0 9.0 0.00 0.00 0.00 43 1021.0
20260901203530 77 158 15.0 18.0 0.00 0.00 0.00 43 1021.0
20260901203029 77 138 15.0 20.0 0.00 0.00 0.00 43 1021.0
20260901202529 76 125 10.0 14.0 0.00 0.00 0.00 44 1021.0
20260901202029 76 153 11.0 16.0 0.00 0.00 0.00 45 1021.0
20260901201530 76 150 7.0 10.0 0.00 0.00 0.00 47 1022.0
20260901201029 76 139 13.0 18.0 0.00 0.00 0.00 46 1022.0
20260901200530 76 157 9.0 13.0 0.00 0.00 0.00 46 1022.0
20260901200030 76 147 9.0 17.0 0.00 0.00 0.00 46 1022.0
20260901195529 75 127 9.0 13.0 0.00 0.00 0.00 47 1022.0
20260901195030 75 156 10.0 16.0 0.00 0.00 0.00 47 1022.0
20260901194529 75 325 3.0 6.0 0.00 0.00 0.00 48 1022.0
20260901194030 75 150 12.0 17.0 0.00 0.00 0.00 46 1022.0
20260901193529 75 138 11.0 17.0 0.00 0.00 0.00 46 1022.0
20260901193031 75 150 7.0 14.0 0.00 0.00 0.00 48 1022.0
20260901192529 75 149 16.0 22.0 0.00 0.00 0.00 48 1022.0
20260901192029 75 139 10.0 16.0 0.00 0.00 0.00 48 1022.0
20260901191529 75 168 4.0 9.0 0.00 0.00 0.00 49 1022.0
20260901191029 75 151 18.0 26.0 0.00 0.00 0.00 47 1022.0
20260901190529 74 132 8.0 14.0 0.00 0.00 0.00 48 1022.0
20260901190030 74 132 13.0 17.0 0.00 0.00 0.00 48 1022.0
20260901185529 74 141 9.0 13.0 0.00 0.00 0.00 50 1022.0
20260901185029 74 152 9.0 17.0 0.00 0.00 0.00 50 1022.0
20260901184529 73 150 10.0 13.0 0.00 0.00 0.00 52 1022.0
20260901184029 73 125 5.0 10.0 0.00 0.00 0.00 54 1022.0
20260901183530 72 164 4.0 9.0 0.00 0.00 0.00 57 1023.0
20260901183029 72 118 9.0 13.0 0.00 0.00 0.00 55 1023.0
20260901182529 72 177 6.0 7.0 0.00 0.00 0.00 57 1023.0
20260901182029 71 147 4.0 7.0 0.00 0.00 0.00 58 1023.0
20260901181530 71 154 5.0 7.0 0.00 0.00 0.00 59 1023.0
20260901181030 71 300 3.0 4.0 0.00 0.00 0.00 60 1023.0
20260901180529 71 144 2.0 5.0 0.00 0.00 0.00 59 1023.0
20260901180029 71 148 4.0 5.0 0.00 0.00 0.00 58 1023.0
20260901175529 70 142 5.0 8.0 0.00 0.00 0.00 57 1023.0
20260901175029 70 158 6.0 6.0 0.00 0.00 0.00 57 1023.0
20260901174530 70 155 5.0 7.0 0.00 0.00 0.00 56 1023.0
20260901174029 70 159 7.0 9.0 0.00 0.00 0.00 56 1023.0
20260901173530 71 156 8.0 11.0 0.00 0.00 0.00 55 1023.0
20260901173034 70 73 3.0 6.0 0.00 0.00 0.00 57 1023.0
20260901172529 69 137 3.0 4.0 0.00 0.00 0.00 56 1023.0
20260901172030 68 67 7.0 8.0 0.00 0.00 0.00 50 1023.0
20260901171530 67 151 6.0 8.0 0.00 0.00 0.00 51 1023.0
20260901171029 67 121 1.0 4.0 0.00 0.00 0.00 55 1023.0
20260901170530 68 98 2.0 3.0 0.00 0.00 0.00 54 1023.0
20260901170030 67 59 4.0 4.0 0.00 0.00 0.00 55 1023.0
20260901165530 67 147 7.0 10.0 0.00 0.00 0.00 55 1023.0
20260901165029 67 114 1.0 5.0 0.00 0.00 0.00 56 1023.0
20260901164529 66 29 2.0 4.0 0.00 0.00 0.00 57 1023.0
20260901163554 65 123 4.0 5.0 0.00 0.00 0.00 59 1023.0
20260901163030 65 62 4.0 4.0 0.00 0.00 0.00 60 1023.0
20260901162530 65 7 6.0 7.0 0.00 0.00 0.00 60 1023.0
20260901162029 65 51 7.0 8.0 0.00 0.00 0.00 60 1023.0
20260901161529 65 148 6.0 9.0 0.00 0.00 0.00 59 1023.0
20260901161030 65 32 3.0 6.0 0.00 0.00 0.00 59 1023.0
20260901160530 65 44 6.0 7.0 0.00 0.00 0.00 60 1023.0
20260901160033 64 78 4.0 8.0 0.00 0.00 0.00 61 1023.0
20260901155529 64 51 4.0 7.0 0.00 0.00 0.00 62 1023.0
20260901155030 64 65 4.0 6.0 0.00 0.00 0.00 62 1023.0
20260901154530 64 94 6.0 7.0 0.00 0.00 0.00 60 1023.0
20260901154118 64 51 6.0 6.0 0.00 0.00 0.00 61 1023.0
20260901153532 63 208 3.0 3.0 0.00 0.00 0.00 62 1023.0
20260901153029 62 355 2.0 6.0 0.00 0.00 0.00 66 1023.0
20260901152530 62 131 3.0 5.0 0.00 0.00 0.00 67 1023.0
20260901152029 62 52 2.0 3.0 0.00 0.00 0.00 67 1023.0
20260901151530 61 21 0.0 0.0 0.00 0.00 0.00 70 1023.0
20260901151030 61 15 2.0 4.0 0.00 0.00 0.00 72 1023.0
20260901150529 61 360 0.0 0.0 0.00 0.00 0.00 70 1023.0
20260901150031 61 344 0.0 0.0 0.00 0.00 0.00 71 1023.0
20260901145529 60 72 0.0 1.0 0.00 0.00 0.00 71 1023.0
20260901145032 60 59 0.0 1.0 0.00 0.00 0.00 72 1023.0
20260901144529 60 61 3.0 4.0 0.00 0.00 0.00 72 1023.0
20260901144030 60 67 0.0 0.0 0.00 0.00 0.00 72 1023.0
20260901143531 60 42 4.0 5.0 0.00 0.00 0.00 73 1023.0
20260901143029 60 46 4.0 4.0 0.00 0.00 0.00 75 1023.0
20260901142530 60 72 1.0 2.0 0.00 0.00 0.00 74 1023.0
20260901142031 60 61 3.0 3.0 0.00 0.00 0.00 75 1023.0
20260901141530 60 65 2.0 4.0 0.00 0.00 0.00 75 1023.0
20260901141030 60 52 0.0 0.0 0.00 0.00 0.00 74 1023.0
20260901140530 60 55 3.0 4.0 0.00 0.00 0.00 75 1023.0
20260901140032 60 63 3.0 4.0 0.00 0.00 0.00 74 1023.0
20260901135530 59 55 1.0 2.0 0.00 0.00 0.00 76 1023.0
20260901135029 58 53 2.0 4.0 0.00 0.00 0.00 77 1023.0
20260901134531 58 47 4.0 7.0 0.00 0.00 0.00 78 1023.0
20260901134029 57 34 5.0 6.0 0.00 0.00 0.00 81 1023.0
20260901133530 57 360 0.0 0.0 0.00 0.00 0.00 82 1023.0
20260901133030 56 6 1.0 4.0 0.00 0.00 0.00 82 1023.0
20260901132529 56 34 1.0 3.0 0.00 0.00 0.00 83 1023.0
20260901132030 57 360 0.0 0.0 0.00 0.00 0.00 84 1023.0
20260901131529 57 360 0.0 0.0 0.00 0.00 0.00 84 1023.0
20260901131029 57 6 2.0 4.0 0.00 0.00 0.00 84 1023.0
20260901130529 57 3 0.0 0.0 0.00 0.00 0.00 84 1023.0
20260901130029 57 339 0.0 1.0 0.00 0.00 0.00 83 1023.0
20260901125529 57 360 0.0 0.0 0.00 0.00 0.00 83 1023.0
20260901125030 57 7 5.0 5.0 0.00 0.00 0.00 83 1023.0
20260901124530 57 7 0.0 1.0 0.00 0.00 0.00 83 1023.0
20260901124029 57 360 0.0 0.0 0.00 0.00 0.00 82 1023.0
20260901123529 56 360 0.0 0.0 0.00 0.00 0.00 82 1023.0
20260901123031 56 360 0.0 0.0 0.00 0.00 0.00 83 1023.0
20260901122529 56 360 0.0 0.0 0.00 0.00 0.00 83 1023.0
20260901122031 56 360 0.0 0.0 0.00 0.00 0.00 82 1023.0
20260901121531 56 10 0.0 0.0 0.00 0.00 0.00 82 1023.0
20260901121041 56 360 0.0 0.0 0.00 0.00 0.00 82 1023.0
20260901120530 56 360 0.0 0.0 0.00 0.00 0.00 82 1023.0
20260901120030 56 360 0.0 0.0 0.00 0.00 0.00 82 1023.0
20260901115529 56 347 0.0 0.0 0.00 0.00 0.00 81 1023.0
20260901115029 57 360 0.0 0.0 0.00 0.00 0.00 80 1023.0
20260901114530 57 360 0.0 0.0 0.00 0.00 0.00 79 1023.0
20260901114029 57 360 0.0 0.0 0.00 0.00 0.00 78 1023.0
20260901113529 57 43 1.0 2.0 0.00 0.00 0.00 78 1022.0
20260901113029 57 102 2.0 4.0 0.00 0.00 0.00 79 1022.0
20260901112529 57 23 1.0 4.0 0.00 0.00 0.00 78 1022.0
20260901112029 57 360 4.0 5.0 0.00 0.00 0.00 78 1022.0
20260901111529 57 39 4.0 4.0 0.00 0.00 0.00 78 1022.0
20260901111030 57 21 5.0 6.0 0.00 0.00 0.00 77 1022.0
20260901110529 57 360 0.0 0.0 0.00 0.00 0.00 77 1022.0
20260901110030 57 15 1.0 4.0 0.00 0.00 0.00 77 1022.0
20260901105529 56 360 0.0 0.0 0.00 0.00 0.00 78 1023.0
20260901105030 56 360 0.0 0.0 0.00 0.00 0.00 79 1023.0
20260901104529 56 360 0.0 0.0 0.00 0.00 0.00 78 1023.0
20260901104029 56 360 0.0 0.0 0.00 0.00 0.00 77 1023.0
20260901103529 56 360 0.0 0.0 0.00 0.00 0.00 77 1023.0
20260901103030 57 360 0.0 0.0 0.00 0.00 0.00 77 1023.0
20260901102529 57 360 0.0 0.0 0.00 0.00 0.00 76 1023.0
20260901102031 57 4 1.0 4.0 0.00 0.00 0.00 76 1023.0
20260901101529 58 24 0.0 0.0 0.00 0.00 0.00 74 1023.0